Gage, OK

3:58 PM CDT on May 23, 2018 (GMT -0500)
Gage

Weather History for KGAG - November, 2012

Change the Weather History Date:

Tuesday, November 27, 2012

  Actual Average Record
Temperature  
Mean Temperature 34 °F -  
Max Temperature 53 °F 46 °F 80 °F (2017)
Min Temperature 15 °F 24 °F 9 °F (2002)
Degree Days  
Heating Degree Days 31    
Moisture  
Dew Point 21 °F    
Average Humidity 61    
Maximum Humidity 92    
Minimum Humidity 29    
Precipitation  
Precipitation 0.00 in - - ()
Sea Level Pressure  
Sea Level Pressure 30.35 in    
Wind  
Wind Speed 7 mph (SSW)    
Max Wind Speed 21 mph    
Max Gust Speed 29 mph    
Visibility 10 miles    
Events      
Averages and records for this station are not official NWS values.
T = Trace of Precipitation, MM = Missing Value Source: NWS Daily Summary

Daily Weather History Graph

Daily Weather History Graph

Search for Another Location

Airport or City:

Astronomy

Nov. 27, 2012 Rise Set
Actual Time 7:28 AM CST 5:24 PM CST
Civil Twilight 7:00 AM CST 5:53 PM CST
Nautical Twilight 6:28 AM CST 6:24 PM CST
Astronomical Twilight 5:57 AM CST 6:55 PM CST
Moon 4:57 PM CST (11/27) 6:35 AM CST (11/27)
Length of Visible Light 10h 52m
Length of Day
9h 56m
Waxing Gibbous, 99% of the Moon is Illuminated
Nov 27
Waxing Gibbous
Nov 28
Full
Dec 6
Last Quarter
Dec 13
New
Dec 19
First Quarter

Hourly Weather History & Observations

Time (CST) Temp. Windchill Dew Point Humidity Pressure Visibility Wind Dir Wind Speed Gust Speed Precip Events Conditions
1:53 AM 21.0 °F - 18.0 °F 88% 30.46 in 10.0 mi Calm Calm - N/A   Clear
2:53 AM 19.9 °F 14.9 °F 17.1 °F 89% 30.48 in 10.0 mi West 3.5 mph - N/A   Clear
3:53 AM 19.0 °F 11.1 °F 17.1 °F 92% 30.47 in 10.0 mi WSW 5.8 mph - N/A   Clear
4:53 AM 19.9 °F 12.1 °F 18.0 °F 92% 30.45 in 8.0 mi SW 5.8 mph - N/A   Clear
5:53 AM 18.0 °F - 15.1 °F 88% 30.47 in 8.0 mi Calm Calm - N/A   Clear
6:53 AM 15.1 °F 9.4 °F 12.0 °F 88% 30.48 in 9.0 mi SW 3.5 mph - N/A   Clear
7:53 AM 18.0 °F 9.8 °F 16.0 °F 92% 30.47 in 6.0 mi South 5.8 mph - N/A   Clear
8:53 AM 27.0 °F - 23.0 °F 85% 30.46 in 8.0 mi Calm Calm - N/A   Clear
9:53 AM 36.0 °F 28.0 °F 25.0 °F 64% 30.45 in 10.0 mi SSW 11.5 mph - N/A   Clear
10:53 AM 41.0 °F 33.9 °F 24.1 °F 51% 30.42 in 10.0 mi SSW 12.7 mph - N/A   Clear
11:53 AM 45.0 °F 37.9 °F 23.0 °F 42% 30.40 in 10.0 mi SSW 16.1 mph 23.0 mph N/A   Clear
12:53 PM 50.0 °F - 19.9 °F 31% 30.33 in 10.0 mi South 13.8 mph 25.3 mph N/A   Clear
1:53 PM 51.8 °F - 21.2 °F 30% 30.26 in 10.0 mi SSW 16.1 mph - N/A   Clear
2:53 PM 53.1 °F - 21.0 °F 29% 30.26 in 10.0 mi SSW 19.6 mph 28.8 mph N/A   Clear
3:53 PM 52.0 °F - 21.9 °F 31% 30.24 in 10.0 mi SSW 20.7 mph 28.8 mph N/A   Clear
4:53 PM 50.0 °F - 21.0 °F 32% 30.25 in 10.0 mi SSW 15.0 mph - N/A   Clear
5:53 PM 44.1 °F 37.7 °F 21.0 °F 40% 30.26 in 10.0 mi South 12.7 mph - N/A   Clear
6:53 PM 41.0 °F 33.9 °F 21.9 °F 47% 30.27 in 10.0 mi South 12.7 mph - N/A   Clear
7:53 PM 39.0 °F 31.0 °F 21.9 °F 50% 30.27 in 10.0 mi South 13.8 mph - N/A   Clear
8:53 PM 39.9 °F 31.1 °F 23.0 °F 51% 30.25 in 10.0 mi South 17.3 mph - N/A   Clear
9:53 PM 37.9 °F 34.4 °F 24.1 °F 57% 30.25 in 10.0 mi SW 4.6 mph - N/A   Clear
10:53 PM 36.0 °F 32.1 °F 24.1 °F 62% 30.25 in 10.0 mi SSW 4.6 mph - N/A   Clear
11:53 PM 33.1 °F - 23.0 °F 66% 30.26 in 10.0 mi Calm Calm - N/A   Clear